Change the Weather History Date:

Thursday, October 20, 2011

  Actual Average Record
Temperature  
Mean Temperature 64 °F -  
Max Temperature 78 °F 71 °F 91 °F (2004)
Min Temperature 49 °F 51 °F 44 °F (1996)
Degree Days  
Heating Degree Days 2    
Growing Degree Days 14 (Base 50)    
Moisture  
Dew Point 56 °F    
Average Humidity 82    
Maximum Humidity 100    
Minimum Humidity 40    
Precipitation  
Precipitation 0.00 in 0.08 in - ()
Sea Level Pressure  
Sea Level Pressure 30.13 in    
Wind  
Wind Speed 4 mph ()    
Max Wind Speed 15 mph    
Max Gust Speed -    
Visibility 6.8 miles    
Events      
Averages and records for this station are not official NWS values.
T = Trace of Precipitation, MM = Missing Value Source: Averaged Metar Reports

Daily Weather History Graph

Daily Weather History Graph

Search for Another Location

Airport or City:

Trip Planner

Search our weather history database for the weather conditions in past years. The results will help you decide how hot, cold, wet, or windy it might be!

Date:

Astronomy

Oct. 20, 2011 Rise Set
Actual Time 7:12 AM CEST 6:17 PM CEST
Civil Twilight 6:46 AM CEST 6:43 PM CEST
Nautical Twilight 6:15 AM CEST 7:14 PM CEST
Astronomical Twilight 5:45 AM CEST 7:44 PM CEST
Moon No Moon Rise 2:07 PM CEST (10/20)
Length of Visible Light 11h 57m
Length of Day
11h 04m
Waning Gibbous, 47% of the Moon is Illuminated
Oct 20
Waning Gibbous
Oct 26
New
Nov 2
First Quarter
Nov 10
Full
Nov 18
Last Quarter

Hourly Weather History & Observations

Time (CEST) Temp. Dew Point Humidity Pressure Visibility Wind Dir Wind Speed Gust Speed Precip Events Conditions
12:55 AM 55.4 °F 55.4 °F 100% 30.21 in 6.2 mi WSW 3.5 mph - N/A   Partly Cloudy
1:55 AM 53.6 °F 53.6 °F 100% 30.21 in 6.2 mi WSW 3.5 mph - N/A   Partly Cloudy
2:00 AM 53 °F 53 °F 100% 30.23 in 7 mi WSW 3.5 mph - -   Scattered Clouds
2:55 AM 53.6 °F 53.6 °F 100% 30.18 in 6.2 mi WNW 2.3 mph - N/A   Partly Cloudy
3:55 AM 51.8 °F 51.8 °F 100% 30.18 in 6.2 mi West 3.5 mph - N/A   Partly Cloudy
4:55 AM 51.8 °F 51.8 °F 100% 30.15 in 6.2 mi SW 2.3 mph - N/A   Partly Cloudy
5:00 AM 51 °F 51 °F 100% 30.18 in 9 mi SW 2.3 mph - -   Scattered Clouds
5:55 AM 50.0 °F 50.0 °F 100% 30.15 in 6.2 mi SW 2.3 mph - N/A   Partly Cloudy
6:55 AM 51.8 °F 51.8 °F 100% 30.15 in 6.2 mi WSW 2.3 mph - N/A   Scattered Clouds
7:55 AM 51.8 °F 51.8 °F 100% 30.15 in 6.2 mi SW 5.8 mph - N/A   Scattered Clouds
8:00 AM 52 °F 52 °F 98% 30.17 in 7 mi SW 5.8 mph - -   Partly Cloudy
8:55 AM 59.0 °F 59.0 °F 100% 30.15 in 6.2 mi WSW 2.3 mph - N/A   Partly Cloudy
9:55 AM 66.2 °F 60.8 °F 83% 30.18 in 6.2 mi WSW 4.6 mph - N/A   Partly Cloudy
10:55 AM 69.8 °F 59.0 °F 68% 30.18 in 6.2 mi WSW 2.3 mph - N/A   Partly Cloudy
11:00 AM 70 °F 59 °F 60% 30.18 in 9 mi WSW 2.3 mph - -   Scattered Clouds
12:55 PM 75.2 °F 59.0 °F 57% 30.12 in 6.2 mi West 6.9 mph - N/A   Scattered Clouds
1:55 PM 77.0 °F 57.2 °F 50% 30.12 in 6.2 mi SSE 3.5 mph - N/A   Scattered Clouds
2:00 PM 76 °F 57 °F 41% 30.12 in 9 mi SSE 3.5 mph - -   Partly Cloudy
2:55 PM 75.2 °F 57.2 °F 53% 30.09 in 6.2 mi SSW 10.4 mph - N/A   Scattered Clouds
3:55 PM 77.0 °F 57.2 °F 50% 30.06 in 6.2 mi SW 15.0 mph - N/A   Scattered Clouds
4:55 PM 75.2 °F 57.2 °F 53% 30.06 in 6.2 mi SW 11.5 mph - N/A   Partly Cloudy
5:00 PM 76 °F 56 °F 40% 30.08 in 10 mi SW 11.5 mph - -   Scattered Clouds
5:55 PM 69.8 °F 55.4 °F 60% 30.06 in 6.2 mi SW 8.1 mph - N/A   Partly Cloudy
6:55 PM 64.4 °F 55.4 °F 73% 30.06 in 6.2 mi South 6.9 mph - N/A   Partly Cloudy
8:00 PM 63 °F 60 °F 87% 30.09 in 10 mi SW 3.5 mph - -   Scattered Clouds
8:55 PM 59.0 °F 59.0 °F 100% 30.09 in 6.2 mi Calm Calm - N/A   Partly Cloudy
9:55 PM 59.0 °F 59.0 °F 100% 30.09 in 6.2 mi South 1.2 mph - N/A   Partly Cloudy
10:55 PM 57.2 °F 57.2 °F 100% 30.09 in 6.2 mi SW 4.6 mph - N/A   Partly Cloudy
11:00 PM 58 °F 58 °F 98% 30.12 in 6 mi SW 4.6 mph - -   Scattered Clouds